TimeCDT,TemperatureF,Dew PointF,Humidity,Sea Level PressureIn,VisibilityMPH,Wind Direction,Wind SpeedMPH,Gust SpeedMPH,PrecipitationIn,Events,Conditions,WindDirDegrees,DateUTC
12:05 AM,62.6,62.6,100,29.87,2.0,Calm,Calm,-,N/A,,Clear,0,2013-09-26 05:05:00
12:17 AM,62.6,60.8,94,29.87,1.5,Calm,Calm,-,N/A,,Clear,0,2013-09-26 05:17:00
12:36 AM,62.6,60.8,94,29.87,0.5,Calm,Calm,-,N/A,Fog,Fog,0,2013-09-26 05:36:00
12:46 AM,62.6,62.6,100,29.87,1.0,Calm,Calm,-,N/A,,Clear,0,2013-09-26 05:46:00
12:53 AM,62.1,61.0,96,29.87,0.2,Calm,Calm,-,N/A,Fog,Fog,0,2013-09-26 05:53:00
1:01 AM,60.8,60.8,100,29.87,0.2,Calm,Calm,-,N/A,Fog,Fog,0,2013-09-26 06:01:00
1:46 AM,59.0,59.0,100,29.88,0.2,Calm,Calm,-,N/A,Fog,Fog,0,2013-09-26 06:46:00
1:53 AM,59.0,59.0,100,29.88,0.2,Calm,Calm,-,N/A,Fog,Fog,0,2013-09-26 06:53:00
2:21 AM,59.0,59.0,100,29.89,1.0,Calm,Calm,-,N/A,,Mist,0,2013-09-26 07:21:00
2:23 AM,59.0,59.0,100,29.89,2.5,Calm,Calm,-,N/A,,Partly Cloudy,0,2013-09-26 07:23:00
2:28 AM,59.0,59.0,100,29.89,1.0,Calm,Calm,-,N/A,,Mist,0,2013-09-26 07:28:00
2:32 AM,59.0,59.0,100,29.89,0.2,Calm,Calm,-,N/A,Fog,Fog,0,2013-09-26 07:32:00
2:53 AM,57.9,57.0,97,29.88,0.2,Calm,Calm,-,N/A,Fog,Fog,0,2013-09-26 07:53:00
3:19 AM,57.2,57.2,100,29.89,0.5,Calm,Calm,-,N/A,Fog,Fog,0,2013-09-26 08:19:00
3:35 AM,59.0,57.2,94,29.90,0.2,Calm,Calm,-,N/A,Fog,Fog,0,2013-09-26 08:35:00
3:53 AM,57.0,57.0,100,29.89,0.2,Calm,Calm,-,N/A,Fog,Fog,0,2013-09-26 08:53:00
3:55 AM,57.2,57.2,100,29.90,0.5,Calm,Calm,-,N/A,Fog,Fog,0,2013-09-26 08:55:00
4:05 AM,57.2,57.2,100,29.90,0.2,Calm,Calm,-,N/A,Fog,Fog,0,2013-09-26 09:05:00
4:14 AM,57.2,57.2,100,29.91,0.2,Calm,Calm,-,N/A,Fog,Fog,0,2013-09-26 09:14:00
4:24 AM,57.2,57.2,100,29.91,0.2,Calm,Calm,-,N/A,Fog,Fog,0,2013-09-26 09:24:00
4:53 AM,57.0,57.0,100,29.91,0.2,Calm,Calm,-,N/A,Fog,Fog,0,2013-09-26 09:53:00
5:53 AM,57.0,57.0,100,29.93,0.2,Calm,Calm,-,N/A,Fog,Fog,0,2013-09-26 10:53:00
6:00 AM,57.2,57.2,100,29.93,0.5,Calm,Calm,-,N/A,Fog,Fog,0,2013-09-26 11:00:00
6:16 AM,57.2,57.2,100,29.94,0.2,Calm,Calm,-,N/A,Fog,Fog,0,2013-09-26 11:16:00
6:20 AM,57.2,57.2,100,29.94,0.2,Calm,Calm,-,N/A,Fog,Fog,0,2013-09-26 11:20:00
6:53 AM,57.9,57.9,100,29.95,0.2,Calm,Calm,-,N/A,Fog,Fog,0,2013-09-26 11:53:00
7:02 AM,57.2,57.2,100,29.96,0.5,Calm,Calm,-,N/A,Fog,Fog,0,2013-09-26 12:02:00
7:44 AM,60.8,59.0,94,29.98,0.2,Calm,Calm,-,N/A,Fog,Fog,0,2013-09-26 12:44:00
7:53 AM,61.0,61.0,100,29.98,0.2,Calm,Calm,-,N/A,Fog,Fog,0,2013-09-26 12:53:00
8:10 AM,62.6,62.6,100,29.98,0.8,Calm,Calm,-,N/A,,Mist,0,2013-09-26 13:10:00
8:12 AM,64.4,62.6,94,29.98,1.2,Calm,Calm,-,N/A,,Scattered Clouds,0,2013-09-26 13:12:00
8:16 AM,64.4,62.6,94,29.98,3.0,ENE,3.5,-,N/A,,Scattered Clouds,60,2013-09-26 13:16:00
8:53 AM,66.9,64.9,93,29.99,9.0,Calm,Calm,-,N/A,,Clear,0,2013-09-26 13:53:00
9:53 AM,73.9,66.0,76,30.00,10.0,Calm,Calm,-,N/A,,Clear,0,2013-09-26 14:53:00
10:53 AM,79.0,66.0,64,30.00,10.0,Calm,Calm,-,N/A,,Partly Cloudy,0,2013-09-26 15:53:00
11:53 AM,82.0,64.9,56,29.99,10.0,Variable,3.5,-,N/A,,Mostly Cloudy,0,2013-09-26 16:53:00
12:53 PM,79.0,63.0,58,29.98,10.0,NE,3.5,-,N/A,,Partly Cloudy,50,2013-09-26 17:53:00
1:53 PM,84.0,63.0,49,29.97,10.0,Calm,Calm,-,N/A,,Clear,0,2013-09-26 18:53:00
2:53 PM,82.0,61.0,49,29.96,10.0,East,4.6,-,N/A,,Clear,90,2013-09-26 19:53:00
3:53 PM,84.0,62.1,47,29.95,10.0,East,5.8,-,N/A,,Partly Cloudy,90,2013-09-26 20:53:00
4:53 PM,81.0,64.0,56,29.95,10.0,SE,3.5,-,N/A,,Clear,140,2013-09-26 21:53:00
5:53 PM,79.0,64.0,60,29.96,10.0,SE,4.6,-,N/A,,Clear,130,2013-09-26 22:53:00
6:53 PM,73.0,63.0,71,29.96,10.0,ESE,4.6,-,N/A,,Clear,120,2013-09-26 23:53:00
7:53 PM,68.0,63.0,84,29.98,10.0,SE,3.5,-,N/A,,Clear,130,2013-09-27 00:53:00
8:53 PM,68.0,62.1,81,29.99,10.0,Calm,Calm,-,N/A,,Clear,0,2013-09-27 01:53:00
9:53 PM,66.9,62.1,84,30.00,10.0,Calm,Calm,-,N/A,,Clear,0,2013-09-27 02:53:00
10:53 PM,66.0,62.1,87,30.00,10.0,Calm,Calm,-,N/A,,Clear,0,2013-09-27 03:53:00
11:53 PM,61.0,59.0,93,30.01,6.0,Calm,Calm,-,N/A,,Clear,0,2013-09-27 04:53:00